Location: Cactus School
(34.5700°N, 118.0931°W)
Time: 12:00:08
(UTC-07:00)

Explorer 7 - All Passes

Search period start: 19 April 2024 00:00
Search period end: 29 April 2024 00:00
Orbit: 468 x 628 km, 50.3° (Epoch: 19 April)

Date Brightness Start Highest point End Pass type
(mag) Time Alt. Az. Time Alt. Az. Time Alt. Az.
19 Apr - 11:05:58 10° SW 11:10:29 68° SE 11:15:05 10° NE daylight
19 Apr - 12:46:52 10° W 12:50:40 25° NNW 12:54:29 10° NNE daylight
19 Apr - 14:30:22 10° NNW 14:31:52 11° N 14:33:21 10° NNE daylight
19 Apr - 16:11:10 10° NNW 16:13:23 13° NNE 16:15:35 10° NE daylight
19 Apr - 17:50:05 10° NW 17:54:16 38° NNE 17:58:15 10° ESE daylight
19 Apr - 19:30:12 10° WNW 19:33:58 29° SW 19:37:35 10° S daylight
20 Apr - 09:23:16 10° SSE 09:25:08 12° SE 09:27:00 10° E daylight
20 Apr - 10:59:51 10° SW 11:04:23 88° NW 11:09:02 10° NE daylight
20 Apr - 12:41:18 10° WNW 12:44:47 21° NNW 12:48:16 10° NNE daylight
20 Apr - 14:24:52 10° NNW 14:26:05 11° N 14:27:18 10° NNE daylight
20 Apr - 16:04:53 10° NNW 16:07:34 15° NNE 16:10:11 10° NE daylight
20 Apr - 17:43:54 10° NW 17:48:16 51° NE 17:52:25 10° ESE daylight
20 Apr - 19:24:31 10° W 19:27:47 21° SW 19:30:55 10° S daylight
21 Apr - 09:15:53 10° S 09:18:52 18° SE 09:21:55 10° E daylight
21 Apr - 10:53:48 10° WSW 10:58:18 66° NW 11:02:55 10° NE daylight
21 Apr - 12:35:45 10° WNW 12:38:52 18° NNW 12:42:00 10° NNE daylight
21 Apr - 14:19:10 10° NNW 14:20:18 11° N 14:21:24 10° NNE daylight
21 Apr - 15:58:36 10° NNW 16:01:41 18° NNE 16:04:42 10° ENE daylight
21 Apr - 17:37:44 10° NW 17:42:13 70° NE 17:46:28 10° ESE daylight
21 Apr - 19:19:05 10° W 19:21:32 15° SW 19:23:54 10° SSW daylight
22 Apr - 09:09:00 10° S 09:12:37 24° SE 09:16:20 10° ENE daylight
22 Apr - 10:47:50 10° WSW 10:52:14 49° NW 10:56:44 10° NE daylight
22 Apr - 12:30:15 10° NW 12:32:59 15° NNW 12:35:43 10° NNE daylight
22 Apr - 14:13:12 10° NNW 14:14:28 11° N 14:15:43 10° NNE daylight
22 Apr - 15:52:18 10° NNW 15:55:46 21° NNE 15:59:08 10° ENE daylight
22 Apr - 17:31:36 10° NW 17:36:06 86° SW 17:40:22 10° SE daylight
22 Apr - 19:15:05 10° WSW 19:15:14 10° WSW 19:15:23 10° SW daylight
23 Apr - 09:02:22 10° SSW 09:06:22 34° SE 09:10:31 10° ENE daylight
23 Apr - 10:41:57 10° WSW 10:46:11 38° NNW 10:50:30 10° NE daylight
23 Apr - 12:24:45 10° NW 12:27:05 14° NNW 12:29:25 10° NNE daylight
23 Apr - 14:07:03 10° NNW 14:08:37 11° N 14:10:11 10° NNE daylight
23 Apr - 15:46:00 10° NNW 15:49:48 25° NNE 15:53:29 10° E daylight
23 Apr - 17:25:30 10° NW 17:29:56 61° SW 17:34:09 10° SE daylight
24 Apr - 08:55:54 10° SSW 09:00:08 47° SE 09:04:32 10° ENE daylight
24 Apr - 10:36:07 10° W 10:40:08 30° NNW 10:44:13 10° NNE daylight
24 Apr - 12:19:15 10° NW 12:21:12 12° N 12:23:08 10° NNE daylight
24 Apr - 14:00:46 10° NNW 14:02:44 12° N 14:04:41 10° NE daylight
24 Apr - 15:39:41 10° NNW 15:43:46 31° NNE 15:47:43 10° E daylight
24 Apr - 17:19:26 10° WNW 17:23:42 43° SW 17:27:47 10° SSE daylight
25 Apr - 08:49:31 10° SW 08:53:54 66° SE 08:58:27 10° NE daylight
25 Apr - 10:30:21 10° W 10:34:05 25° NNW 10:37:54 10° NNE daylight
25 Apr - 12:13:43 10° NNW 12:15:17 11° N 12:16:51 10° NNE daylight
25 Apr - 13:54:25 10° NNW 13:56:48 14° NNE 13:59:10 10° NE daylight
25 Apr - 15:33:23 10° NW 15:37:41 39° NNE 15:41:51 10° ESE daylight
25 Apr - 17:13:28 10° WNW 17:17:26 31° SW 17:21:14 10° SSE daylight
26 Apr - 07:06:59 10° SE 07:08:28 12° SE 07:09:59 10° ESE daylight
26 Apr - 08:43:16 10° SW 08:47:41 89° NW 08:52:16 10° NE daylight
26 Apr - 10:24:38 10° WNW 10:28:03 21° NNW 10:31:31 10° NNE daylight
26 Apr - 12:08:04 10° NNW 12:09:22 11° N 12:10:40 10° NNE daylight
26 Apr - 13:48:04 10° NNW 13:50:50 16° NNE 13:53:36 10° NE daylight
26 Apr - 15:27:04 10° NW 15:31:33 51° NE 15:35:52 10° ESE daylight
26 Apr - 17:07:37 10° WNW 17:11:06 22° SW 17:14:28 10° S daylight
27 Apr - 06:59:20 10° SSE 07:02:05 17° SE 07:04:55 10° E daylight
27 Apr - 08:37:06 10° WSW 08:41:28 66° NW 08:46:01 10° NE daylight
27 Apr - 10:18:57 10° WNW 10:22:01 17° NNW 10:25:07 10° NNE daylight
27 Apr - 12:02:13 10° NNW 12:03:26 11° N 12:04:38 10° NNE daylight
27 Apr - 13:41:39 10° NNW 13:44:49 18° NNE 13:47:58 10° ENE daylight
27 Apr - 15:20:47 10° NW 15:25:21 69° NE 15:29:46 10° ESE daylight
27 Apr - 17:01:59 10° W 17:04:42 16° SW 17:07:23 10° SSW daylight
28 Apr - 06:52:17 10° S 06:55:41 23° SE 06:59:14 10° ENE daylight
28 Apr - 08:31:00 10° WSW 08:35:16 49° NW 08:39:42 10° NE daylight
28 Apr - 10:13:19 10° NW 10:16:00 15° NNW 10:18:42 10° NNE daylight
28 Apr - 11:56:08 10° NNW 11:57:28 11° N 11:58:48 10° NNE daylight
28 Apr - 13:35:14 10° NNW 13:38:45 21° NNE 13:42:15 10° ENE daylight
28 Apr - 15:14:30 10° NW 15:19:06 87° SW 15:23:32 10° SE daylight
28 Apr - 16:57:02 10° WSW 16:58:17 11° SW 16:59:32 10° SW daylight
